AirNav   TITAN Aviation Fuels
 
 1063 users online  

18MN Hines Farm Airport
Motley, Minnesota, USA

GOING TO MOTLEY?


FAA INFORMATION EFFECTIVE 22 APRIL 2021

Location

FAA Identifier: 18MN
Lat/Long: 46-14-13.8760N 094-35-35.0470W
46-14.231267N 094-35.584117W
46.2371878,-94.5930686
(estimated)
Elevation: 1283 ft. / 391 m (estimated)
Variation: 04E (1985)
From city: 6 miles SE of MOTLEY, MN
Time zone: UTC -5 (UTC -6 during Standard Time)
Zip code: 56443

Airport Operations

Airport use: Private use, PERSONAL USE.
Activation date: 11/1978
Control tower: no
ARTCC: MINNEAPOLIS CENTER
FSS: PRINCETON FLIGHT SERVICE STATION
Attendance: UNATNDD
Wind indicator: yes
Segmented circle: no

Airport Communications

WX AWOS-3 at SAZ (12 nm NW): 118.325 (218-894-3666)

Nearby radio navigation aids

VOR radial/distance  VOR name  Freq  Var
AXNr051/31.4ALEXANDRIA VOR/DME112.8007E

 
NDB name  Hdg/Dist  Freq  Var  ID
RIPLEY309/14.140403EXCR -..- -.-. .-.

Airport Services

Runway Information

Runway E/W

Dimensions: 2600 x 50 ft. / 792 x 15 m
Surface: turf
RUNWAY E  RUNWAY W
Traffic pattern: leftleft
Obstructions: none25 ft. trees, 50 ft. from runway

Airport Ownership and Management from official FAA records

Ownership: Privately-owned
Owner: DETMER C. HINES
3218 330TH STREET
MOTLEY, MN 56466
Phone 218-575-2610
Manager: DETMER C. HINES
3218 330TH STREET
MOTLEY, MN 56466
Phone 218-575-2610

Airport Operational Statistics

Aircraft based on the field: 1
Single engine airplanes: 1
    

Additional Remarks

OWNER DESIRES ARPT NOT TO BE CHARTED.
FOR CD CTC MINNEAPOLIS ARTCC AT 651-463-5588.

Instrument Procedures

There are no published instrument procedures at 18MN.

Some nearby airports with instrument procedures:

KSAZ - Staples Municipal Airport (12 nm NW)
KRYM - Ray S Miller Army Airfield (13 nm SE)
KLXL - Little Falls/Morrison County Airport-Lindbergh Field (20 nm SE)
KBRD - Brainerd Lakes Regional Airport (22 nm NE)
14Y - Todd Field Airport (23 nm SW)
 
Loc | Ops | Rwys | IFR | FBO | Links
Com | Nav | Svcs | Stats | Notes
Area around 18MN (Hines Farm Airport)
 
Road maps at: MapQuest Bing Google
 
Aerial photo
No photo
 
Sectional chart

 
Airport distance calculator
Flying to Hines Farm Airport? Find the distance to fly.

From to 18MN

Sunrise and sunset
Times for 09-May-2021
 Local
(UTC-5)
 Zulu
(UTC)
Morning civil twilight05:2010:20
Sunrise05:5410:54
Sunset20:3601:36
Evening civil twilight21:1002:10

Current date and time
Zulu (UTC)  10-May-2021 01:31:30
Local (UTC-5)  09-May-2021 20:31:30
 
METAR
KSAZ 
12nm NW 
100115Z AUTO 04003KT 10SM CLR 12/M06 A3007 RMK AO2
KRYM 
13nm SE 
100056Z AUTO 04011KT 10SM SCT085 12/M05 A3006 RMK AO2 SLP189 T01221048 $
KLXL 
20nm SE 
100115Z AUTO 07005KT 10SM BKN090 11/M08 A3007 RMK AO2
KBRD 
21nm NE 
100053Z AUTO 04011KT 10SM FEW075 11/M04 A3008 RMK AO2 SLP192 T01061044
TAF
KBRD 
21nm NE 
092154Z 0922/1018 34012G18KT P6SM SKC FM100000 01007KT P6SM SCT100 BKN150 FM101200 05006KT P6SM BKN120
NOTAMs
Click for the latest NOTAMs
NOTAMs are issued by the DoD/FAA and will open in a separate window not controlled by AirNav.

 

 
 

Would you like to see your business listed on this page?

 If your business provides an interesting product or service to pilots, flight crews, aircraft, or users of the Hines Farm Airport, you should consider listing it here.  To start the listing process, click on the button below
 
Add a business
 

Other Pages about Hines Farm Airport

Update a link
 
Copyright © AirNav, LLC. All rights reserved. Privacy Policy  Contact